SQ6ELQ-11 Weather Reports


time (UTC)temp
C
wind
direction
speed
KPH
gust
KPH
rain 1hr
cm
rain 24hr
cm
rain mn
cm
humidity
%
barometer
mb
20260502232346 6 0 0.0 0.0 0.00 0.00 0.00 54 1019.3
20260502230616 6 0 0.0 0.0 0.00 0.00 0.00 53 1019.2
20260502224911 6 0 0.0 0.0 0.00 0.00 0.00 50 1019.4
20260502223201 6 0 0.0 0.0 0.00 0.00 0.00 51 1019.4
20260502221254 7 0 0.0 0.0 0.00 0.00 0.00 47 1019.7
20260502215606 7 0 0.0 0.0 0.00 0.00 0.00 50 1019.5
20260502213720 7 0 0.0 0.0 0.00 0.00 0.00 50 1019.5
20260502211821 8 0 0.0 0.0 0.00 0.00 0.00 47 1019.6
20260502210025 8 0 0.0 0.0 0.00 0.00 0.00 47 1019.9
20260502204226 8 0 0.0 0.0 0.00 0.00 0.00 46 1019.9
20260502202520 9 0 0.0 0.0 0.00 0.00 0.00 46 1020.0
20260502200706 9 0 0.0 0.0 0.00 0.00 0.00 45 1020.1
20260502194751 10 0 0.0 0.0 0.00 0.00 0.00 43 1020.3
20260502193032 10 0 0.0 0.0 0.00 0.00 0.00 42 1020.3
20260502191100 11 0 0.0 0.0 0.00 0.00 0.00 40 1020.3
20260502185221 11 0 0.0 0.0 0.00 0.00 0.00 37 1020.2
20260502183518 12 0 0.0 0.0 0.00 0.00 0.00 34 1020.2
20260502181813 15 0 0.0 0.0 0.00 0.00 0.00 30 1020.3
20260502170459 21 0 0.0 0.0 0.00 0.00 0.00 15 1019.9
20260502162911 22 0 0.0 0.0 0.00 0.00 0.00 12 1020.2
20260502161113 22 0 0.0 0.0 0.00 0.00 0.00 13 1020.3
20260502151754 22 0 0.0 0.0 0.00 0.00 0.00 11 1020.9
20260502123506 22 0 0.0 0.0 0.00 0.00 0.00 23 1022.5
20260502121636 21 0 0.0 0.0 0.00 0.00 0.00 25 1022.8
20260502114241 20 0 0.0 0.0 0.00 0.00 0.00 24 1023.1
20260502112453 20 0 0.0 0.0 0.00 0.00 0.00 27 1023.3
20260502110623 20 0 0.0 0.0 0.00 0.00 0.00 27 1023.5
20260502104749 20 0 0.0 0.0 0.00 0.00 0.00 28 1023.6
20260502102937 20 0 0.0 0.0 0.00 0.00 0.00 29 1023.7
20260502101134 19 0 0.0 0.0 0.00 0.00 0.00 29 1023.9
20260502071311 13 0 0.0 0.0 0.00 0.00 0.00 43 1025.0
20260502065601 12 0 0.0 0.0 0.00 0.00 0.00 46 1025.0
20260502063853 11 0 0.0 0.0 0.00 0.00 0.00 57 1024.9
20260502062111 10 0 0.0 0.0 0.00 0.00 0.00 59 1025.1
20260502060156 9 0 0.0 0.0 0.00 0.00 0.00 61 1025.1
20260502054436 7 0 0.0 0.0 0.00 0.00 0.00 63 1025.0
20260502052600 5 0 0.0 0.0 0.00 0.00 0.00 63 1025.1
20260502050806 4 0 0.0 0.0 0.00 0.00 0.00 63 1025.0
20260502044922 2 0 0.0 0.0 0.00 0.00 0.00 63 1025.1
20260502043141 2 0 0.0 0.0 0.00 0.00 0.00 69 1025.1
20260502041351 1 0 0.0 0.0 0.00 0.00 0.00 67 1025.1
20260502035531 1 0 0.0 0.0 0.00 0.00 0.00 68 1025.0
20260502033629 1 0 0.0 0.0 0.00 0.00 0.00 67 1025.1
20260502031711 1 0 0.0 0.0 0.00 0.00 0.00 68 1025.2
20260502025923 1 0 0.0 0.0 0.00 0.00 0.00 67 1025.2
20260502024001 1 0 0.0 0.0 0.00 0.00 0.00 67 1025.3
20260502022226 1 0 0.0 0.0 0.00 0.00 0.00 67 1025.4
20260502020501 1 0 0.0 0.0 0.00 0.00 0.00 67 1025.5
20260502014636 2 0 0.0 0.0 0.00 0.00 0.00 67 1025.4
20260502012812 2 0 0.0 0.0 0.00 0.00 0.00 67 1025.5
20260502010941 2 0 0.0 0.0 0.00 0.00 0.00 66 1025.5
20260502005041 2 0 0.0 0.0 0.00 0.00 0.00 65 1025.6
20260502003251 2 0 0.0 0.0 0.00 0.00 0.00 65 1025.8
20260502001506 2 0 0.0 0.0 0.00 0.00 0.00 64 1025.8
20260501235706 3 0 0.0 0.0 0.00 0.00 0.00 65 1025.9
20260501233816 3 0 0.0 0.0 0.00 0.00 0.00 63 1025.9